Weather History for Hilton Head Island, SC

Change the Weather History Date:

Friday, November 1, 2013

  Actual Average Record
Temperature  
Mean Temperature 74 °F -  
Max Temperature 78 °F 73 °F 88 °F (1961)
Min Temperature 71 °F 55 °F 30 °F (1954)
Cooling Degree Days 10    
Growing Degree Days 24 (Base 50)    
Moisture  
Dew Point 70 °F    
Average Humidity 91    
Maximum Humidity 100    
Minimum Humidity 69    
Precipitation  
Precipitation 0.41 in - - ()
Sea Level Pressure  
Sea Level Pressure 29.89 in    
Wind  
Wind Speed 7 mph (South)    
Max Wind Speed 10 mph    
Max Gust Speed 21 mph    
Visibility 9 miles    
Events Rain    
Averages and records for this station are not official NWS values.
T = Trace of Precipitation, MM = Missing Value Source: NWS Daily Summary

Daily Weather History Graph

Daily Weather History Graph

Search for Another Location

Airport:

Trip Planner

Search our weather history database for the weather conditions in past years. The results will help you decide how hot, cold, wet, or windy it might be!

Date:

Astronomy

Nov. 01, 2013 Rise Set
Actual Time 7:39 AM EDT 6:32 PM EDT
Civil Twilight 7:14 AM EDT 6:57 PM EDT
Nautical Twilight 6:45 AM EDT 7:26 PM EDT
Astronomical Twilight 6:16 AM EDT 7:55 PM EDT
Moon 5:36 AM EDT (11/1) 5:19 PM EDT (11/1)
Length of Visible Light 11h 43m
Length of Day
10h 52m
Waning Crescent, 4% of the Moon is Illuminated
Nov 1
Waning Crescent
Nov 3
New
Nov 10
First Quarter
Nov 17
Full
Nov 25
Last Quarter

Hourly Weather History & Observations

Time (EDT) Temp. Dew Point Humidity Pressure Visibility Wind Dir Wind Speed Gust Speed Precip Events Conditions
12:15 AM 73.4 °F 71.6 °F 94% 30.01 in 10.0 mi South 6.9 mph - 0.00 in   Clear
12:35 AM 73.4 °F 71.6 °F 94% 30.00 in 10.0 mi South 8.1 mph - 0.00 in   Clear
12:55 AM 73.4 °F 71.6 °F 94% 29.99 in 10.0 mi South 5.8 mph - 0.00 in   Clear
1:15 AM 73.4 °F 71.6 °F 94% 29.98 in 10.0 mi South 4.6 mph - 0.00 in   Clear
1:35 AM 71.6 °F 71.6 °F 100% 29.98 in 10.0 mi South 4.6 mph - 0.00 in   Clear
1:55 AM 73.4 °F 71.6 °F 94% 29.97 in 10.0 mi South 8.1 mph - 0.00 in   Clear
2:15 AM 73.4 °F 71.6 °F 94% 29.97 in 10.0 mi South 6.9 mph - 0.00 in   Clear
2:35 AM 73.4 °F 71.6 °F 94% 29.96 in 10.0 mi South 8.1 mph - 0.00 in   Clear
2:55 AM 73.4 °F 71.6 °F 94% 29.96 in 10.0 mi South 6.9 mph - 0.00 in   Clear
3:15 AM 73.4 °F 71.6 °F 94% 29.95 in 10.0 mi South 8.1 mph - 0.00 in   Clear
3:35 AM 73.4 °F 71.6 °F 94% 29.94 in 10.0 mi South 9.2 mph - 0.00 in   Clear
3:55 AM 71.6 °F 69.8 °F 94% 29.93 in 10.0 mi South 8.1 mph - 0.00 in   Clear
4:15 AM 71.6 °F 69.8 °F 94% 29.93 in 10.0 mi South 6.9 mph - 0.00 in   Clear
4:35 AM 71.6 °F 69.8 °F 94% 29.92 in 10.0 mi South 6.9 mph - 0.00 in   Clear
4:55 AM 71.6 °F 69.8 °F 94% 29.92 in 10.0 mi South 5.8 mph - 0.00 in   Clear
5:15 AM 71.6 °F 69.8 °F 94% 29.92 in 10.0 mi South 6.9 mph - 0.00 in   Clear
5:35 AM 71.6 °F 69.8 °F 94% 29.91 in 10.0 mi South 6.9 mph - 0.00 in   Clear
5:55 AM 71.6 °F 69.8 °F 94% 29.90 in 10.0 mi South 9.2 mph - 0.00 in   Clear
6:15 AM 71.6 °F 69.8 °F 94% 29.90 in 10.0 mi South 5.8 mph 18.4 mph 0.00 in   Clear
6:35 AM 71.6 °F 69.8 °F 94% 29.90 in 10.0 mi South 8.1 mph 17.3 mph 0.00 in   Clear
7:50 AM 71.6 °F 69.8 °F 94% 29.92 in 10.0 mi SSW 9.2 mph 16.1 mph N/A   Partly Cloudy
8:50 AM 73.4 °F 69.8 °F 88% 29.93 in 10.0 mi SSW 10.4 mph 18.4 mph N/A   Scattered Clouds
9:50 AM 73.4 °F 69.8 °F 88% 29.94 in 10.0 mi SSW 9.2 mph - N/A   Mostly Cloudy
10:50 AM 75.2 °F 69.8 °F 83% 29.94 in 10.0 mi SSW 10.4 mph - N/A   Mostly Cloudy
11:50 AM 75.2 °F 68.0 °F 78% 29.91 in 10.0 mi SSE 4.6 mph - N/A   Mostly Cloudy
12:50 PM 75.2 °F 69.8 °F 83% 29.88 in 10.0 mi South 5.8 mph - N/A   Scattered Clouds
1:50 PM 78.8 °F - N/A% 29.86 in 10.0 mi South 10.4 mph 17.3 mph N/A   Scattered Clouds
2:50 PM 78.8 °F 68.0 °F 69% 29.82 in 10.0 mi South 9.2 mph 17.3 mph N/A   Scattered Clouds
3:50 PM 75.2 °F 68.0 °F 78% 29.81 in 10.0 mi South 9.2 mph - N/A   Scattered Clouds
4:50 PM 75.2 °F 68.0 °F 78% 29.81 in 10.0 mi South 9.2 mph 15.0 mph N/A   Overcast
5:50 PM 75.2 °F 68.0 °F 78% 29.79 in 10.0 mi South 9.2 mph 16.1 mph N/A   Overcast
6:50 PM 75.2 °F 68.0 °F 78% 29.80 in 10.0 mi South 10.4 mph 17.3 mph N/A   Overcast
7:50 PM 75.2 °F 68.0 °F 78% 29.81 in 10.0 mi South 8.1 mph 15.0 mph N/A   Mostly Cloudy
9:15 PM 73.4 °F 71.6 °F 94% 29.81 in 5.0 mi South 8.1 mph - 0.02 in Rain Rain
9:35 PM 73.4 °F 71.6 °F 94% 29.80 in 10.0 mi South 8.1 mph - 0.03 in   Clear
9:55 PM 73.4 °F 71.6 °F 94% 29.79 in 7.0 mi South 9.2 mph - 0.03 in   Light Drizzle
10:15 PM 73.4 °F 71.6 °F 94% 29.80 in 10.0 mi South 10.4 mph 20.7 mph 0.00 in   Light Drizzle
10:35 PM 73.4 °F 71.6 °F 94% 29.80 in 3.0 mi South 9.2 mph 16.1 mph 0.03 in Rain Rain
10:55 PM 71.6 °F 71.6 °F 100% 29.80 in 9.0 mi South 9.2 mph 17.3 mph 0.05 in   Light Drizzle
11:15 PM 73.4 °F 71.6 °F 94% 29.80 in 5.0 mi WSW 5.8 mph - 0.00 in Rain Light Rain
11:35 PM 71.6 °F 71.6 °F 100% 29.80 in 4.0 mi SW 4.6 mph - 0.03 in Rain Rain
11:55 PM 71.6 °F 71.6 °F 100% 29.80 in 1.0 mi West 5.8 mph - 0.33 in Rain Heavy Rain